Hermosillo, México

4:54 AM MST en Febrero 17, 2019 (GMT -0700)
Gen Ignacio Pesqueira Garcia

Tiempo Historia de MMHO - Febrero, 2019

Change the Weather History Date:

Lunes, Febrero 11, 2019

  Actual Average Record
Temperature  
Temperatura media 64 ° F -  
Temperatura máxima 77 ° F 78 ° F 97 ° F (2016)
Temperatura mínima 51 ° F 49 ° F 37 ° F (2009)
Growing Degree Days 14 (Base 50)    
Moisture  
Punto de rocío 38 ° F    
Average Humidity 43    
Maximum Humidity 72    
Minimum Humidity 13    
Precipitación  
Precipitación 0.00 pul - - ()
Presión al nivel del mar  
Presión al nivel del mar 30.03 pul    
Viento  
Velocidad del viento 2 mph ()    
Velocidad máxima del viento 7 mph    
Max Gust Speed -    
Visibilidad 9.7 Millas    
Eventos      
Averages and records for this station are not official NWS values.
T = Trace of Precipitation, MM = Missing Value Source: Averaged Metar Reports

Daily Weather History Graph

Daily Weather History Graph

Search for Another Location

Airport or City:

Astronomía

Feb. 11, 2019 Salida Puesta
Hora real 7:06 AM MST 6:10 PM MST
Crepúsculo civil 6:41 AM MST 6:35 PM MST
Crepúsculo náutico 6:14 AM MST 7:03 PM MST
Crepúsculo astronómico 5:46 AM MST 7:30 PM MST
Luna 11:08 AM MST (2/11) Sin puesta de luna
Horas de luz 11h 53m
Horas de luz
11h 04m
Creciente, 38% of the Moon is Illuminated
Feb 11
Creciente
Feb 12
Cuarto creciente
Feb 19
Luna llena
Feb 26
Cuarto menguante
Mar 6
Nueva

Hourly Weather History & Observations

Hora (MST) Temp. Punto de rocío Humedad Presión Visibilidad Wind Dir Velocidad del viento Velocidad de ráfagas Precip Eventos Condiciones
12:40 AM 55.4 ° F 42.8 ° F 63% 29.97 pul 10.0 mi Sin viento Sin viento - N/A   Nublado
1:40 AM 55.4 ° F 42.8 ° F 63% 29.98 pul 10.0 mi Sin viento Sin viento - N/A   Nublado
2:40 AM 57.2 ° F 44.6 ° F 63% 29.99 pul 10.0 mi Sin viento Sin viento - N/A   Nublado
3:40 AM 55.4 ° F 44.6 ° F 67% 29.97 pul 10.0 mi ENE 3.5 mph - N/A   Nublado
4:40 AM 57.2 ° F 44.6 ° F 63% 29.99 pul 10.0 mi NNE 3.5 mph - N/A   Nublado
5:40 AM 57.2 ° F 44.6 ° F 63% 29.98 pul 10.0 mi Norte 3.5 mph - N/A   Nublado
6:40 AM 53.6 ° F 44.6 ° F 72% 30.00 pul 10.0 mi Sin viento Sin viento - N/A   Nublado
7:40 AM 53.6 ° F 44.6 ° F 72% 30.04 pul 10.0 mi Sin viento Sin viento - N/A   Muy nublado
8:40 AM 57.2 ° F 44.6 ° F 63% 30.05 pul 10.0 mi Sin viento Sin viento - N/A   Muy nublado
9:51 AM 62.6 ° F 46.4 ° F 55% 30.07 pul 10.0 mi OSO 4.6 mph - N/A   Muy nublado
10:40 AM 66.2 ° F 41.0 ° F 40% 30.09 pul 10.0 mi NNO 4.6 mph - N/A   Nubes dispersas
10:45 AM 64 ° F 49 ° F 47% 30.07 pul 7 mi Este 2.2 mph - -   Nubes dispersas
11:42 AM 71.6 ° F 39.2 ° F 31% 30.07 pul 10.0 mi Sin viento Sin viento - N/A   Nubes dispersas
12:43 PM 71.6 ° F 33.8 ° F 25% 30.05 pul 10.0 mi Oeste 5.8 mph - N/A   Nubes dispersas
1:40 PM 73.4 ° F 28.4 ° F 19% 30.04 pul 10.0 mi ONO 6.9 mph - N/A   Nubes dispersas
1:42 PM 73 ° F 32 ° F 13% 30.00 pul 7 mi OSO 2.2 mph - -   Nubes dispersas
2:40 PM 73.4 ° F 30.2 ° F 20% 30.02 pul 10.0 mi Sin viento Sin viento - N/A   Nubes dispersas
3:40 PM 75.2 ° F 30.2 ° F 19% 30.01 pul 10.0 mi SSE 3.5 mph - N/A   Parcialmente nublado
4:40 PM 76 ° F 35 ° F 13% 29.99 pul 7 mi SO 2.2 mph - -   Despejado
4:40 PM 75.2 ° F 28.4 ° F 18% 30.02 pul 10.0 mi OSO 3.5 mph - N/A   Nubes dispersas
5:40 PM 73.4 ° F 30.2 ° F 20% 30.02 pul 10.0 mi Oeste 4.6 mph - N/A   Nubes dispersas
6:40 PM 66.2 ° F 32.0 ° F 28% 30.03 pul 10.0 mi OSO 6.9 mph - N/A   Nubes dispersas
7:40 PM 60.8 ° F 33.8 ° F 36% 30.07 pul 10.0 mi OSO 4.6 mph - N/A   Nubes dispersas
9:44 PM 55.4 ° F 32.0 ° F 41% 30.08 pul 10.0 mi Sin viento Sin viento - N/A   Nubes dispersas
10:40 PM 53.6 ° F 33.8 ° F 47% 30.11 pul 10.0 mi Sur 4.6 mph - N/A   Nubes dispersas
11:40 PM 51.8 ° F 32.0 ° F 47% 30.11 pul 10.0 mi Sin viento Sin viento - N/A   Nubes dispersas